| time (UTC) | temp C | wind direction | speed KPH | gust KPH | rain 1hr cm | rain 24hr cm | rain mn cm | humidity % | barometer mb |
| 20260505152958 | 14 | 322 | 3.2 | 11.3 | 0.00 | 0.05 | 0.05 | 80 | 1007.8 |
| 20260505124458 | 12 | 66 | 4.8 | 11.3 | 0.00 | 0.05 | 0.05 | 86 | 1006.8 |
| 20260505122958 | 12 | 84 | 4.8 | 11.3 | 0.00 | 0.05 | 0.05 | 86 | 1006.7 |
| 20260505121457 | 12 | 309 | 6.4 | 16.1 | 0.00 | 0.05 | 0.05 | 86 | 1006.2 |
| 20260505115958 | 12 | 98 | 4.8 | 12.9 | 0.00 | 0.05 | 0.05 | 87 | 1006.2 |
| 20260505114456 | 12 | 98 | 3.2 | 9.7 | 0.00 | 0.05 | 0.05 | 86 | 1006.2 |
| 20260505111457 | 13 | 97 | 3.2 | 9.7 | 0.00 | 0.05 | 0.05 | 88 | 1005.7 |
| 20260505101456 | 16 | 293 | 3.2 | 6.4 | 0.00 | 0.05 | 0.05 | 90 | 1006.0 |
| 20260505095956 | 16 | 323 | 4.8 | 16.1 | 0.00 | 0.05 | 0.05 | 90 | 1006.0 |
| 20260505094456 | 16 | 359 | 1.6 | 8.0 | 0.00 | 0.05 | 0.05 | 89 | 1005.8 |
| 20260505092956 | 16 | 174 | 1.6 | 4.8 | 0.00 | 0.05 | 0.05 | 87 | 1004.7 |
| 20260505085956 | 16 | 226 | 3.2 | 11.3 | 0.05 | 0.05 | 0.05 | 89 | 1003.7 |
| 20260505082957 | 16 | 187 | 4.8 | 12.9 | 0.05 | 0.05 | 0.05 | 90 | 1004.2 |
| 20260505081456 | 17 | 251 | 6.4 | 20.9 | 0.00 | 0.00 | 0.00 | 87 | 1005.2 |
| 20260505075958 | 17 | 273 | 6.4 | 22.5 | 0.00 | 0.00 | 0.00 | 82 | 1005.1 |
| 20260505074456 | 18 | 290 | 8.0 | 22.5 | 0.00 | 0.00 | 0.00 | 78 | 1004.9 |
| 20260505072957 | 18 | 154 | 4.8 | 14.5 | 0.00 | 0.00 | 0.00 | 75 | 1005.1 |
| 20260505071456 | 18 | 198 | 3.2 | 11.3 | 0.00 | 0.00 | 0.00 | 74 | 1004.9 |
| 20260505065956 | 18 | 189 | 4.8 | 16.1 | 0.00 | 0.00 | 0.00 | 74 | 1004.6 |
| 20260505064456 | 18 | 196 | 4.8 | 11.3 | 0.00 | 0.00 | 0.00 | 74 | 1004.7 |
| 20260505062956 | 18 | 157 | 4.8 | 14.5 | 0.00 | 0.00 | 0.00 | 73 | 1005.1 |
| 20260505061456 | 18 | 155 | 3.2 | 9.7 | 0.00 | 0.00 | 0.00 | 74 | 1005.2 |
| 20260505055959 | 18 | 188 | 3.2 | 19.3 | 0.00 | 0.00 | 0.00 | 73 | 1005.1 |
| 20260505053000 | 19 | 167 | 4.8 | 14.5 | 0.00 | 0.00 | 0.00 | 71 | 1005.3 |
| 20260505051500 | 19 | 181 | 6.4 | 19.3 | 0.00 | 0.00 | 0.00 | 71 | 1005.3 |
| 20260505041500 | 20 | 158 | 4.8 | 14.5 | 0.00 | 0.00 | 0.00 | 70 | 1005.5 |
| 20260505034459 | 20 | 225 | 4.8 | 16.1 | 0.00 | 0.00 | 0.00 | 69 | 1006.0 |
| 20260505033000 | 20 | 207 | 6.4 | 16.1 | 0.00 | 0.00 | 0.00 | 68 | 1006.1 |
| 20260505031500 | 20 | 201 | 4.8 | 14.5 | 0.00 | 0.00 | 0.00 | 68 | 1006.0 |
| 20260505030002 | 20 | 214 | 4.8 | 12.9 | 0.00 | 0.00 | 0.00 | 68 | 1006.1 |
| 20260505022959 | 21 | 175 | 6.4 | 17.7 | 0.00 | 0.00 | 0.00 | 66 | 1005.8 |
| 20260505021459 | 21 | 209 | 4.8 | 12.9 | 0.00 | 0.00 | 0.00 | 65 | 1005.6 |
| 20260505015959 | 21 | 175 | 1.6 | 8.0 | 0.00 | 0.00 | 0.00 | 64 | 1005.4 |
| 20260505011459 | 22 | 198 | 3.2 | 11.3 | 0.00 | 0.00 | 0.00 | 60 | 1004.7 |
| 20260505005959 | 22 | 219 | 3.2 | 9.7 | 0.00 | 0.00 | 0.00 | 60 | 1004.7 |
| 20260505004458 | 23 | 136 | 6.4 | 19.3 | 0.00 | 0.00 | 0.00 | 58 | 1004.5 |
| 20260505002959 | 23 | 186 | 8.0 | 25.7 | 0.00 | 0.00 | 0.00 | 56 | 1004.3 |
| 20260505001459 | 23 | 221 | 4.8 | 22.5 | 0.00 | 0.00 | 0.00 | 55 | 1004.3 |
| 20260504234459 | 24 | 238 | 6.4 | 25.7 | 0.00 | 0.00 | 0.00 | 54 | 1004.4 |
| 20260504232959 | 25 | 213 | 8.0 | 17.7 | 0.00 | 0.00 | 0.00 | 53 | 1004.4 |
| 20260504231459 | 25 | 142 | 8.0 | 22.5 | 0.00 | 0.00 | 0.00 | 52 | 1004.4 |
| 20260504224459 | 25 | 191 | 8.0 | 20.9 | 0.00 | 0.00 | 0.00 | 53 | 1004.5 |
| 20260504222959 | 26 | 162 | 9.7 | 29.0 | 0.00 | 0.00 | 0.00 | 51 | 1004.4 |
| 20260504221459 | 25 | 220 | 9.7 | 22.5 | 0.00 | 0.00 | 0.00 | 55 | 1004.5 |
| 20260504215959 | 25 | 251 | 9.7 | 30.6 | 0.00 | 0.00 | 0.00 | 54 | 1004.5 |
| 20260504214459 | 26 | 153 | 9.7 | 25.7 | 0.00 | 0.00 | 0.00 | 53 | 1004.5 |
| 20260504212959 | 25 | 203 | 11.3 | 27.4 | 0.00 | 0.00 | 0.00 | 55 | 1004.7 |
| 20260504211458 | 26 | 278 | 8.0 | 19.3 | 0.00 | 0.00 | 0.00 | 54 | 1004.9 |
| 20260504205958 | 26 | 151 | 9.7 | 22.5 | 0.00 | 0.00 | 0.00 | 53 | 1005.0 |
| 20260504204458 | 26 | 211 | 11.3 | 30.6 | 0.00 | 0.00 | 0.00 | 53 | 1005.2 |
| 20260504201457 | 25 | 212 | 11.3 | 29.0 | 0.00 | 0.00 | 0.00 | 52 | 1005.6 |
| 20260504194459 | 26 | 177 | 8.0 | 20.9 | 0.00 | 0.00 | 0.00 | 55 | 1005.9 |
| 20260504193000 | 25 | 172 | 11.3 | 24.1 | 0.00 | 0.00 | 0.00 | 54 | 1006.0 |
| 20260504185959 | 25 | 266 | 12.9 | 33.8 | 0.00 | 0.00 | 0.00 | 53 | 1006.2 |
| 20260504184458 | 25 | 285 | 9.7 | 20.9 | 0.00 | 0.00 | 0.00 | 55 | 1006.2 |
| 20260504175958 | 25 | 206 | 11.3 | 24.1 | 0.00 | 0.00 | 0.00 | 57 | 1006.0 |
| 20260504174458 | 24 | 180 | 11.3 | 25.7 | 0.00 | 0.00 | 0.00 | 55 | 1006.3 |
| 20260504172958 | 24 | 193 | 11.3 | 27.4 | 0.00 | 0.00 | 0.00 | 57 | 1006.4 |
| 20260504171458 | 24 | 148 | 11.3 | 30.6 | 0.00 | 0.00 | 0.00 | 56 | 1006.4 |